Location: Presina
(45.2833°N, 11.3000°E)
Time: 10:55:00
(UTC+00:00)

Daily predictions for brighter satellites

Satellite Brightness Start Highest point End
(mag) Time Altitude Azimuth Time Altitude Azimuth Time Altitude Azimuth
Exosat Rocket 3.8 15:58:15 10° S 16:03:26 53° ESE 16:08:19 10° NNE
Helios 1A Rocket 3.2 16:04:14 10° S 16:08:20 73° WSW 16:12:26 10° NNW
FALCON 9 DEB 4.2 16:06:39 10° SSW 16:09:50 33° SE 16:13:00 10° ENE
Meteor 1-11 Rocket 3.9 16:05:07 10° N 16:11:05 65° ENE 16:16:57 10° SSE
Cosmos 1980 3.9 16:05:47 10° S 16:11:15 55° ESE 16:16:46 10° NNE
ATLAS 2AS CENTAUR R/B 4.0 16:04:00 10° WSW 16:11:31 42° NW 16:19:00 10° NNE
Meteor 1-27 Rocket 4.0 16:06:59 10° S 16:12:32 53° E 16:18:14 10° NNE
COSMO-SKYMED 1 4.3 16:11:36 10° ENE 16:13:57 14° E 16:16:19 10° ESE
SMAP 3.2 16:12:40 10° SSE 16:17:11 53° ENE 16:21:44 10° N
Nadezhda 4 Rocket 4.1 16:12:15 10° S 16:18:25 58° E 16:24:35 10° NNE
Cosmos 2297 4.4 16:14:23 10° N 16:19:27 31° NE 16:24:27 10° ESE
Okean 1-7 4.4 16:16:25 10° SE 16:19:32 20° E 16:22:41 10° NE
YAOGAN 1 4.2 16:18:25 10° E 16:20:32 13° ENE 16:22:38 10° NNE
H-2A R/B 2.8 16:18:41 10° SSE 16:22:14 48° ENE 16:25:49 10° N
Cosmos 1441 Rocket 4.4 16:20:01 10° NNE 16:23:01 21° ENE 16:25:58 10° ESE
AQUARIUS 4.2 16:21:34 10° SSE 16:25:58 58° ENE 16:30:24 10° N
ALOS 4.1 16:23:12 10° SSW 16:27:28 35° W 16:31:47 10° NNW
RESURS DK-1 3.6 16:26:43 10° SW 16:30:36 39° WNW 16:34:32 10° NNE
Cosmos 1733 Rocket 3.3 16:26:19 10° NNW 16:30:42 77° W 16:35:05 10° S
COSMOS 2428 3.6 16:27:58 10° SW 16:33:25 46° WNW 16:38:55 10° NNE
STARLINK-52 3.8 16:32:37 10° SSW 16:35:58 43° SE 16:38:18 17° ENE
Cosmos 1900 4.3 16:31:18 10° NNW 16:36:13 88° ENE 16:41:06 10° SSE
Genesis I 3.6 16:35:33 10° NNW 16:39:16 40° NE 16:42:54 10° ESE
USA 215 3.5 16:33:27 11° NE 16:39:47 66° NNW 16:46:14 10° WSW
Cosmos 2026 Rocket 4.4 16:34:53 10° SSE 16:40:23 38° E 16:45:54 10° NNE
Cosmos 1263 4.4 16:38:10 10° SSE 16:41:05 44° E 16:43:47 11° NNE
ISS -2.0 16:38:23 10° WNW 16:41:27 34° SW 16:44:31 10° SSE
Feng Yun 1-1 Rocket 4.2 16:36:15 10° SSE 16:41:39 90° NNE 16:47:05 10° NNW
Cosmos 292 Rocket 3.8 16:38:14 10° NNW 16:43:05 63° ENE 16:47:54 10° SSE
STARLINK-29 3.4 16:40:37 10° SW 16:44:05 57° SE 16:46:13 21° ENE
Cosmos 1666 2.6 16:42:03 10° N 16:45:44 56° E 16:49:24 10° SSE
Cosmos 1536 2.8 16:43:48 10° N 16:47:50 87° W 16:51:50 10° S
Cosmos 921 Rocket 3.4 16:44:29 10° N 16:48:30 38° ENE 16:52:33 10° SE
NOSS 0 Rocket 4.3 16:45:18 10° SW 16:51:29 68° WNW 16:57:44 10° NNE
STARLINK-60 3.0 16:48:38 10° WSW 16:52:00 81° NNW 16:53:48 25° NE
NOAA 12 4.0 16:49:57 10° SSE 16:55:14 77° ENE 17:00:32 10° N
Cosmos 2251 Rocket 4.3 16:53:08 10° SW 16:58:19 53° WNW 17:03:30 10° NNE
Lacrosse 5 rocket 2.6 16:54:28 10° W 16:58:21 32° NNW 17:00:53 17° NNE
Cosmos 2278 Rocket 3.3 16:53:13 10° NW 16:58:38 48° WSW 17:04:02 10° S
BREEZE-M R/B 3.4 16:53:26 10° WNW 16:58:48 46° N 17:00:15 28° ENE
COBE Rocket 4.0 16:55:46 10° N 17:00:25 74° WNW 17:05:07 10° SSW
SKYMED 2 3.9 16:59:20 16° NNE 17:02:28 43° E 17:06:36 10° S
Cosmos 1782 Rocket 3.6 16:58:31 10° N 17:02:47 51° ENE 17:07:00 10° SSE
Envisat 2.9 17:00:40 10° SSE 17:05:44 80° ENE 17:10:51 10° N
SL-4 R/B 3.0 17:02:22 10° WNW 17:05:50 32° N 17:07:13 25° NE
FengYun 1-2 T 4.2 17:00:29 10° SSE 17:05:51 60° ENE 17:11:17 10° N
Aureole 1 Rocket 2.1 17:04:13 10° SSW 17:07:10 85° WNW 17:08:48 26° NNE
Cosmos 2221 Rocket 4.5 17:04:31 10° SSE 17:08:08 27° E 17:08:08 27° E
Okean 2 Rocket 4.3 17:04:34 10° NNE 17:13:21 - SE 17:06:56 23° NE
Okean 1 3.7 17:04:45 10° SSE 17:08:30 41° E 17:09:47 31° NE
Sich 1 Rocket 3.8 17:04:33 10° N 17:08:48 45° ENE 17:13:01 10° SSE
Cosmos 1140 Rocket 4.0 17:05:00 10° SSE 17:09:38 36° ESE 17:11:21 28° ENE
Cosmos 2369 Rocket 3.1 17:06:15 10° N 17:10:52 25° NE 17:11:13 25° NE
CZ-4 R/B 1.4 17:07:41 10° SE 17:11:25 46° ENE 17:15:08 10° N
Cosmos 1627 Rocket 4.4 17:05:22 10° S 17:11:25 70° E 17:17:32 10° NNE
Cosmos 1703 Rocket 3.5 17:09:05 10° S 17:13:33 85° E 17:18:04 10° N
USA 267 3.7 17:07:31 10° SE 17:14:00 63° SW 17:20:30 10° NW
SL-16 R/B 2.2 17:08:27 10° S 17:14:02 63° ESE 17:17:46 22° NE
Cosmos 1743 2.8 17:10:36 10° N 17:14:24 51° E 17:18:10 10° SSE
Cosmos 407 Rocket 3.5 17:10:19 10° S 17:15:24 59° ESE 17:18:34 23° NE
Cosmos 2195 Rocket 4.4 17:11:11 10° S 17:17:25 85° E 17:23:45 10° N
Cosmos 1655 Rocket 4.4 17:13:05 10° SSE 17:18:47 37° E 17:22:34 19° NNE
YAOGAN 6 2.4 17:15:47 10° SSE 17:19:19 76° ENE 17:22:55 10° N
USA 229 DEB 4.5 17:16:16 10° NNW 17:22:43 34° NE 17:24:57 29° ENE
USA 229 4.5 17:16:23 10° NNW 17:22:49 34° NE 17:25:01 29° ENE
Cosmos 2237 Rocket 3.1 17:18:31 10° SW 17:23:59 46° WNW 17:29:20 11° NNE
Cosmos 2333 Rocket 4.3 17:21:07 10° W 17:25:29 22° NW 17:29:52 10° N
BREEZE-M DEB (TANK) 2.3 17:22:52 10° WNW 17:26:58 53° SSW 17:27:32 41° SSE
Cosmos 1092 Rocket 4.3 17:20:56 10° SSW 17:27:12 70° W 17:33:28 10° N
Shenzhou-11 Module 3.7 17:27:18 10° WSW 17:29:35 23° SSW 17:29:54 22° S
Meteor 1-19 Rocket 4.2 17:29:36 10° S 17:34:56 54° E 17:36:58 35° NE
Meteor 2-4 Rocket 4.3 17:29:40 10° SSE 17:34:31 36° ESE 17:34:31 36° ESE
Cosmos 2219 Rocket 4.4 17:32:00 10° W 17:35:51 18° NW 17:39:44 10° N
Cosmos 1867 3.5 17:33:32 10° NNW 17:39:00 67° NE 17:41:04 38° ESE
Okean-O 3.9 17:35:07 10° S 17:39:18 41° W 17:43:31 10° NNW
BREEZE-M DEB (TANK) 2.0 17:37:41 10° W 17:41:21 77° W 17:41:21 77° W
USA 116 4.3 17:38:51 25° NNE 17:41:59 73° ESE 17:47:00 10° S
Cosmos 1943 Rocket 2.3 17:39:47 10° NNW 17:45:16 49° ENE 17:45:18 49° ENE
FALCON 9 DEB 4.1 17:43:29 10° W 17:46:30 43° NW 17:46:30 43° NW
COSMO-SKYMED 1 3.1 17:47:53 22° N 17:50:30 59° WNW 17:54:46 10° SSW
Meteor 2-13 Rocket 4.3 17:47:41 10° S 17:53:40 66° E 17:56:08 36° NNE
CSL-04 Rocket 3.6 17:48:26 10° SSE 17:53:42 84° WSW 17:59:03 10° NNW
SeaSat 1 4.5 17:59:06 15° N 17:59:06 15° N 18:00:09 10° N
YAOGAN 1 2.7 17:51:45 10° S 17:56:04 72° WSW 18:00:24 10° NNW
Okean 1-7 4.3 17:52:43 10° SW 17:56:48 39° WNW 18:00:20 13° N
CZ-4C R/B 3.8 17:53:31 10° S 17:54:43 16° SSE 17:54:43 16° SSE
S3M 3.8 17:54:12 10° N 18:00:26 79° E 18:06:34 10° SSE
DMSP B5D1-3 4.4 18:09:33 76° SSE 18:09:33 76° SSE 18:14:18 10° SSW
Cosmos 2266 Rocket 4.1 18:02:54 10° S 18:08:30 58° ESE 18:08:30 58° ESE
Cosmos 676 Rocket 3.9 18:06:45 10° SSW 18:11:47 84° WSW 18:11:47 84° WSW
Cosmos 1553 Rocket 4.3 18:06:31 10° NNW 18:12:51 67° W 18:19:11 10° S
Cosmos 1954 Rocket 4.1 18:15:03 10° SSW 18:19:42 70° SW 18:19:42 70° SW
USA 215 4.2 18:20:48 32° NNE 18:22:09 35° NNW 18:27:58 10° WNW
Lacrosse 5 3.8 18:30:06 10° SSW 18:31:52 21° SSW 18:31:52 21° SSW
Lacrosse 5 rocket 4.2 18:35:58 10° NW 18:36:32 12° NW 18:36:32 12° NW
CZ-4 R/B 4.3 18:44:33 10° SW 18:46:42 14° W 18:48:51 10° WNW
Cosmos 2369 Rocket 3.4 18:49:45 10° NNW 18:53:04 35° NW 18:53:04 35° NW
SL-16 R/B 4.0 18:53:58 10° WSW 18:58:36 25° NW 18:59:41 24° NNW
NOSS 3-1 (C) 4.2 18:57:37 10° NW 19:03:58 68° NW 19:03:58 68° NW
USA 229 DEB 4.4 19:07:04 10° NW 19:12:26 53° NW 19:12:26 53° NW
USA 229 4.4 19:07:11 10° NW 19:12:29 52° NW 19:12:29 52° NW
Cosmos 1943 Rocket 4.3 19:24:03 10° NW 19:26:54 23° WNW 19:26:54 23° WNW
Cosmos 2344 4.4 19:21:07 10° NW 19:31:01 83° SW 19:31:31 81° SSW
